User: anonymous   Login
Location: Newark
(55.7816°N, 8.2389°E)
Time: 22:09:26
(UTC+00:00)
Language:

MOZHAYETS 4 - Orbit

View from above orbital plane
View from above orbital plane
View from above satellite
View from above satellite

Ground track
Ground track

The orbit data is extracted from the following two-line orbital elements,

1 27939U 03042A   20052.53566040  .00000075  00000-0  22141-4 0  9993
2 27939  98.0699 189.0430 0013031   9.4172 350.7279 14.66838019876874
Epoch (UTC): 21 February 2020 12:51:21
Eccentricity: 0.0013031
inclination: 98.0699°
perigee height: 662 km
apogee height: 680 km
right ascension of ascending node: 189.0430°
argument of perigee: 9.4172°
revolutions per day: 14.66838019
mean anomaly at epoch: 350.7279°
orbit number at epoch: 87687

The dashed part of the orbit path shows where the satellite is in the earth's shadow,  

DLR